This is the latest recevied weather packets stored in our database for station/object OK1LPD-6. If no packets are shown the sender has not sent any weather packets the latest 10 day(s).
| Time | Temp. | Humidity | Pressure | Rain* | Wind** | Luminosity | Snow |
|---|---|---|---|---|---|---|---|
| 1777483500 | 11.67° C | 30% | 1026.7 hPa | 0 mm | - | - | - |
| 1777482921 | 12.22° C | 30% | 1026.5 hPa | 0 mm | - | - | - |
| 1777482300 | 12.78° C | 24% | 1026.6 hPa | 0 mm | - | - | - |
| 1777481700 | 13.33° C | 24% | 1026.4 hPa | 0 mm | - | - | - |
| 1777481119 | 13.33° C | 24% | 1026.3 hPa | 0 mm | - | - | - |
| 1777480501 | 13.33° C | 24% | 1026.1 hPa | 0 mm | - | - | - |
| 1777479901 | 13.33° C | 24% | 1026 hPa | 0 mm | - | - | - |
| 1777479322 | 13.89° C | 24% | 1026 hPa | 0 mm | - | - | - |
| 1777478701 | 14.44° C | 24% | 1025.8 hPa | 0 mm | - | - | - |
| 1777478101 | 15° C | 26% | 1025.7 hPa | 0 mm | - | - | - |
| 1777477519 | 14.44° C | 24% | 1025.8 hPa | 0 mm | - | - | - |
| 1777476900 | 14.44° C | 24% | 1025.5 hPa | 0 mm | - | - | - |
| 1777476301 | 15° C | 24% | 1025.4 hPa | 0 mm | - | - | - |
| 1777475728 | 15° C | 24% | 1025.6 hPa | 0 mm | - | - | - |
| 1777475101 | 15° C | 24% | 1025.4 hPa | 0 mm | - | - | - |
| 1777474501 | 15.56° C | 24% | 1025.2 hPa | 0 mm | - | - | - |
| 1777473919 | 15° C | 24% | 1025.3 hPa | 0 mm | - | - | - |
| 1777473302 | 15.56° C | 24% | 1025.2 hPa | 0 mm | - | - | - |
| 1777472701 | 15.56° C | 24% | 1025.2 hPa | 0 mm | - | - | - |
| 1777472123 | 15.56° C | 24% | 1025.2 hPa | 0 mm | - | - | - |
| 1777471502 | 15.56° C | 24% | 1025.2 hPa | 0 mm | - | - | - |
| 1777470902 | 15.56° C | 24% | 1025.3 hPa | 0 mm | - | - | - |
| 1777470321 | 15.56° C | 26% | 1025.2 hPa | 0 mm | - | - | - |
| 1777469702 | 15° C | 24% | 1024.9 hPa | 0 mm | - | - | - |
| 1777469102 | 15.56° C | 24% | 1024.9 hPa | 0 mm | - | - | - |
* Rain latest hour (hover to see other rain measurements)
** Current wind speed in m/s (hover to see current wind gust speed)